Regional Weather Roundup
Issued by NWS Mt. Holly, NJ

Home | Current Version | Previous Version | Text Only | Print | Product List | Glossary On
Versions: 1 2 3 4 5 6 7 8 9 10 11 12 13 14 15 16 17 18 19 20 21 22 23 24 25 26 27 28 29 30 31 32 33 34 35 36 37 38 39 40 41 42 43 44 45 46 47 48 49 50
000
ASUS41 KPHI 231911
RWRPHI

REGIONAL WEATHER ROUNDUP
NATIONAL WEATHER SERVICE MOUNT HOLLY NJ
300 PM EDT THU MAR 23 2017

NOTE:  "FAIR" INDICATES FEW OR NO CLOUDS BELOW 12,000 FEET WITH NO
SIGNIFICANT WEATHER AND/OR OBSTRUCTIONS TO VISIBILITY.

 * = STATION DOES NOT REPORT PRECIPITATION (E.G. RAIN, SNOW, ETC.)
        OR FOG.

NJZ015>026-232000-
SOUTHERN NEW JERSEY

CITY           SKY/WX    TMP DP  RH WIND       PRES   REMARKS
POMONA         SUNNY     45   2  17 N10       30.56F
WILDWOOD*      SUNNY     38  10  31 W13G18    30.60F WCI  30
MILLVILLE      SUNNY     41  13  31 W16       30.56F
WRIGHTSTOWN    SUNNY     42   7  24 W12       30.53F
MOUNT HOLLY    SUNNY     41   6  23 N9        30.56F
TRENTON        SUNNY     41   8  25 NW9       30.54F

$$
NJZ001>014-232000-
NORTHERN NEW JERSEY

CITY           SKY/WX    TMP DP  RH WIND       PRES   REMARKS
SUSSEX         SUNNY     38  -2  18 VRB6      30.51F WCI  33
ANDOVER*         N/A     39   1  20 CALM      30.51F
MORRISTOWN     SUNNY     41   1  19 NW9       30.54F
NEWARK         MOSUNNY   42  -1  16 CALM      30.54F
TETERBORO      SUNNY     40   4  22 NW13G22   30.53F WCI  32
CALDWELL       SUNNY     39   1  20 MISG      30.54F
SOMERVILLE     SUNNY     41   2  19 W8        30.52F
ALLAIRE*       SUNNY     41   0  18 W10G17    30.55F
TOMS RIVER*    SUNNY     43   4  19 W10G16    30.56F

$$
PAZ043-044-047-054-055-060>062-066>071-232000-
EASTERN PENNSYLVANIA

CITY           SKY/WX    TMP DP  RH WIND       PRES   REMARKS
PHILADELPHIA   MOSUNNY   42   6  22 S12       30.57F
NORTH PHILA    SUNNY     44   7  21 VRB7      30.57F
BLUE BELL*     SUNNY     39  12  33 W6        30.54F WCI  35
QUAKERTOWN*    SUNNY     39   9  28 NW5       30.54F
PERKASIE*      FAIR      39   9  28 W9        30.54F WCI  33
POTTSTOWN      SUNNY     39   8  27 VRB6      30.56F WCI  35
LANCASTER      SUNNY     41  12  30 SW8       30.56F
COATESVILLE    SUNNY     39   9  28 NW13      30.56S WCI  32
READING        SUNNY     42  12  29 MISG      30.54F
ALLENTOWN      SUNNY     42   6  22 W12G20    30.53F
MOUNT POCONO   SUNNY     31  -3  23 W12       30.44F WCI  22
HAZLETON       SUNNY     37   9  30 W6        30.51S WCI  33
LEHIGHTON      FAIR      39   3  22 NW6       30.54F WCI  35
WILKES BARRE   SUNNY     33   7  33 SW6       30.52F WCI  28

$$
DEZALL-MDZ008-012-015-019-020-232000-
DELAWARE AND EASTERN MARYLAND

CITY           SKY/WX    TMP DP  RH WIND       PRES   REMARKS
WILMINGTON     SUNNY     43   9  24 SW9       30.58F
DOVER          SUNNY     42  13  30 VRB7      30.57F
GEORGETOWN     SUNNY     43   8  23 W8        30.59F
EASTON         SUNNY     43   5  21 W7        30.64F
ABERDEEN       SUNNY     41  12  31 S10       30.58F
PATUXENT       MOSUNNY   39  11  31 E8        30.61F WCI  33
OCEAN CITY     SUNNY     36  16  44 E7        30.61F WCI  30
WALLOPS ISLAND SUNNY     39  22  50 SE9       30.61F WCI  33
CAMBRIDGE      SUNNY     41   7  24 N5G12     30.61F
SALISBURY      SUNNY    N/A N/A N/A NE3       30.59F

$$
PAZ001-021-NYZ056-072-MDZ011-DCZ001-232000-
OTHER NEARBY LOCATIONS

CITY           SKY/WX    TMP DP  RH WIND       PRES   REMARKS
HARRISBURG     MOSUNNY   42   7  23 NW8       30.55F
STATE COLLEGE  SUNNY     39   5  24 SW7       30.49F WCI  34
WILLIAMSPORT   SUNNY     42   5  21 W9        30.53F
BINGHAMTON     SUNNY     29   3  33 VRB6      30.47F WCI  23
NEW YORK CITY  SUNNY     40   0  18 VRB7      30.55F
BALTIMORE      MOSUNNY   44   2  17 W5        30.57F
WASHINGTON DC  MOSUNNY   45   6  20 S8        30.59F

$$



USA.gov is the U.S. government's official web portal to all federal, state and local government web resources and services.